Simultaneous Nadir Overpasses (SNOs) Predictions

Prediction of SNOs between GOES-17 and METOP-B Satellite Orbit:

Table of predicted SNOs for the next 14.0 days since TLE Epoch: 10/1/2022
Index Date Time (GOES-17) GOES-17 Lat,Lon METOP-B Lat,Lon Distance(km) Time Diff (sec)
1 10/01/2022 06:26:32 0.06,-137.33 0.79,-133.94 385.61 80
2 10/02/2022 18:42:45 -0.06,-137.31 0.19,-138.51 136.20 80
3 10/03/2022 18:24:47 -0.06,-137.30 -0.92,-133.52 431.21 80
4 10/05/2022 06:41:08 0.06,-137.27 -0.14,-138.11 95.65 80
5 10/06/2022 06:23:09 0.05,-137.25 0.98,-133.12 471.52 80
6 10/07/2022 18:39:22 -0.05,-137.23 0.06,-137.67 50.93 80
7 10/10/2022 06:37:44 0.05,-137.18 0.01,-137.27 11.09 80
8 10/12/2022 18:38:38 -0.05,-137.13 -0.10,-136.84 32.78 80
9 10/14/2022 06:55:00 0.05,-137.09 -0.94,-141.43 495.09 80
